Time,TemperatureF,DewpointF,PressureIn,WindDirection,WindDirectionDegrees,WindSpeedMPH,WindSpeedGustMPH,Humidity,HourlyPrecipIn,Conditions,Clouds,dailyrainin,SoftwareType,DateUTC
2013-09-13 00:01:00,79.0,54.0,30.06,North,350,12.0,17.0,41,-99.99,,,-99.99,,2013-09-13 00:01:00,
2013-09-13 00:11:00,79.0,54.0,30.06,North,350,12.0,17.0,41,-99.99,,,-99.99,,2013-09-13 00:11:00,
2013-09-13 02:11:00,68.0,48.0,30.11,North,360,7.0,-999.0,49,-99.99,,,-99.99,,2013-09-13 02:11:00,
2013-09-13 02:22:00,66.0,48.0,30.12,North,360,7.0,-999.0,52,-99.99,,,-99.99,,2013-09-13 02:22:00,
2013-09-13 02:53:00,64.0,48.0,30.12,North,360,6.0,-999.0,55,-99.99,,,-99.99,,2013-09-13 02:53:00,
2013-09-13 03:02:00,64.0,48.0,30.12,North,360,6.0,-999.0,55,-99.99,,,-99.99,,2013-09-13 03:02:00,
2013-09-13 03:11:00,64.0,48.0,30.12,North,360,6.0,-999.0,55,-99.99,,,-99.99,,2013-09-13 03:11:00,
2013-09-13 03:22:00,63.0,48.0,30.13,North,360,7.0,-999.0,59,-99.99,,,-99.99,,2013-09-13 03:22:00,
2013-09-13 03:55:00,63.0,48.0,30.13,North,360,8.0,-999.0,59,-99.99,,,-99.99,,2013-09-13 03:55:00,
2013-09-13 04:04:00,63.0,48.0,30.13,North,360,8.0,-999.0,59,-99.99,,,-99.99,,2013-09-13 04:04:00,
2013-09-13 04:14:00,63.0,48.0,30.13,North,360,8.0,-999.0,59,-99.99,,,-99.99,,2013-09-13 04:14:00,
2013-09-13 04:24:00,61.0,50.0,30.14,NNW,340,5.0,-999.0,67,-99.99,,,-99.99,,2013-09-13 04:24:00,
2013-09-13 05:22:00,59.0,50.0,30.15,NNW,330,6.0,-999.0,72,-99.99,,,-99.99,,2013-09-13 05:22:00,
2013-09-13 05:53:00,57.0,50.0,30.14,NNW,340,6.0,-999.0,76,-99.99,,,-99.99,,2013-09-13 05:53:00,
2013-09-13 06:02:00,57.0,50.0,30.14,NNW,340,6.0,-999.0,76,-99.99,,,-99.99,,2013-09-13 06:02:00,
2013-09-13 06:12:00,57.0,50.0,30.14,NNW,340,6.0,-999.0,76,-99.99,,,-99.99,,2013-09-13 06:12:00,
2013-09-13 06:22:00,57.0,50.0,30.14,North,350,6.0,-999.0,76,-99.99,,,-99.99,,2013-09-13 06:22:00,
2013-09-13 06:42:00,55.0,50.0,30.14,North,350,5.0,-999.0,81,-99.99,,,-99.99,,2013-09-13 06:42:00,
2013-09-13 06:52:00,55.0,50.0,30.14,NNW,340,5.0,-999.0,81,-99.99,,,-99.99,,2013-09-13 06:52:00,
2013-09-13 07:02:00,55.0,50.0,30.14,NNW,340,5.0,-999.0,81,-99.99,,,-99.99,,2013-09-13 07:02:00,
2013-09-13 07:11:00,55.0,50.0,30.14,NNW,340,5.0,-999.0,81,-99.99,,,-99.99,,2013-09-13 07:11:00,
2013-09-13 07:22:00,55.0,50.0,30.14,NNW,330,3.0,-999.0,81,-99.99,,,-99.99,,2013-09-13 07:22:00,
2013-09-13 07:52:00,54.0,50.0,30.14,NNW,330,5.0,-999.0,87,-99.99,,,-99.99,,2013-09-13 07:52:00,
2013-09-13 08:02:00,54.0,50.0,30.14,NNW,330,5.0,-999.0,87,-99.99,,,-99.99,,2013-09-13 08:02:00,
2013-09-13 08:11:00,54.0,50.0,30.14,NNW,330,5.0,-999.0,87,-99.99,,,-99.99,,2013-09-13 08:11:00,
2013-09-13 08:22:00,54.0,50.0,30.14,NNW,330,5.0,-999.0,87,-99.99,,,-99.99,,2013-09-13 08:22:00,
2013-09-13 08:52:00,54.0,50.0,30.15,NNW,330,5.0,-999.0,87,-99.99,,,-99.99,,2013-09-13 08:52:00,
2013-09-13 09:02:00,54.0,50.0,30.15,NNW,330,5.0,-999.0,87,-99.99,,,-99.99,,2013-09-13 09:02:00,
2013-09-13 09:12:00,54.0,50.0,30.15,NNW,330,5.0,-999.0,87,-99.99,,,-99.99,,2013-09-13 09:12:00,
2013-09-13 09:21:00,52.0,50.0,30.15,NNW,340,5.0,-999.0,93,-99.99,,,-99.99,,2013-09-13 09:21:00,
2013-09-13 09:54:00,50.0,50.0,30.15,NNW,340,3.0,-999.0,100,-99.99,,,-99.99,,2013-09-13 09:54:00,
2013-09-13 10:03:00,50.0,50.0,30.15,NNW,340,3.0,-999.0,100,-99.99,,,-99.99,,2013-09-13 10:03:00,
2013-09-13 10:12:00,50.0,50.0,30.15,NNW,340,3.0,-999.0,100,-99.99,,,-99.99,,2013-09-13 10:12:00,
2013-09-13 10:23:00,50.0,50.0,30.15,NNW,330,3.0,-999.0,100,-99.99,,,-99.99,,2013-09-13 10:23:00,
2013-09-13 10:53:00,50.0,50.0,30.15,NNW,330,3.0,-999.0,100,-99.99,,,-99.99,,2013-09-13 10:53:00,
2013-09-13 11:03:00,50.0,50.0,30.15,NNW,330,3.0,-999.0,100,-99.99,,,-99.99,,2013-09-13 11:03:00,
2013-09-13 11:12:00,50.0,50.0,30.15,NNW,330,3.0,-999.0,100,-99.99,,,-99.99,,2013-09-13 11:12:00,
2013-09-13 11:22:00,50.0,50.0,30.15,NNW,330,3.0,-999.0,100,-99.99,,,-99.99,,2013-09-13 11:22:00,
2013-09-13 11:52:00,48.0,48.0,30.17,NNW,330,3.0,-999.0,100,-99.99,,,-99.99,,2013-09-13 11:52:00,
2013-09-13 12:01:00,48.0,48.0,30.17,NNW,330,3.0,-999.0,100,-99.99,,,-99.99,,2013-09-13 12:01:00,
2013-09-13 12:11:00,48.0,48.0,30.17,NNW,330,3.0,-999.0,100,-99.99,,,-99.99,,2013-09-13 12:11:00,
2013-09-13 12:21:00,50.0,50.0,30.17,NNW,330,3.0,-999.0,100,-99.99,,,-99.99,,2013-09-13 12:21:00,
2013-09-13 12:52:00,52.0,52.0,30.18,NNW,330,3.0,-999.0,100,-99.99,,,-99.99,,2013-09-13 12:52:00,
2013-09-13 13:02:00,52.0,52.0,30.18,NNW,330,3.0,-999.0,100,-99.99,,,-99.99,,2013-09-13 13:02:00,
2013-09-13 13:11:00,52.0,52.0,30.18,NNW,330,3.0,-999.0,100,-99.99,,,-99.99,,2013-09-13 13:11:00,
2013-09-13 13:21:00,54.0,54.0,30.18,North,350,3.0,-999.0,100,-99.99,,,-99.99,,2013-09-13 13:21:00,
2013-09-13 13:52:00,57.0,52.0,30.18,NNE,20,7.0,-999.0,82,-99.99,,,-99.99,,2013-09-13 13:52:00,
2013-09-13 14:02:00,57.0,52.0,30.18,NNE,20,7.0,-999.0,82,-99.99,,,-99.99,,2013-09-13 14:02:00,
2013-09-13 14:11:00,57.0,52.0,30.18,NNE,20,7.0,-999.0,82,-99.99,,,-99.99,,2013-09-13 14:11:00,
2013-09-13 14:22:00,61.0,54.0,30.18,North,10,6.0,-999.0,77,-99.99,,,-99.99,,2013-09-13 14:22:00,
2013-09-13 14:52:00,63.0,54.0,30.19,North,10,7.0,-999.0,72,-99.99,,,-99.99,,2013-09-13 14:52:00,
2013-09-13 15:02:00,63.0,54.0,30.19,North,10,7.0,-999.0,72,-99.99,,,-99.99,,2013-09-13 15:02:00,
2013-09-13 15:11:00,63.0,54.0,30.19,North,10,7.0,-999.0,72,-99.99,,,-99.99,,2013-09-13 15:11:00,
2013-09-13 15:22:00,64.0,54.0,30.19,NE,50,8.0,-999.0,67,-99.99,,,-99.99,,2013-09-13 15:22:00,
2013-09-13 15:53:00,66.0,54.0,30.20,NNE,30,3.0,-999.0,63,-99.99,,,-99.99,,2013-09-13 15:53:00,
2013-09-13 16:03:00,66.0,54.0,30.20,NNE,30,3.0,-999.0,63,-99.99,,,-99.99,,2013-09-13 16:03:00,
2013-09-13 16:12:00,66.0,54.0,30.20,NNE,30,3.0,-999.0,63,-99.99,,,-99.99,,2013-09-13 16:12:00,
2013-09-13 16:24:00,68.0,54.0,30.19,NE,50,6.0,-999.0,59,-99.99,,,-99.99,,2013-09-13 16:24:00,
2013-09-13 16:54:00,70.0,54.0,30.19,North,10,7.0,-999.0,56,-99.99,,,-99.99,,2013-09-13 16:54:00,
2013-09-13 17:04:00,70.0,54.0,30.19,North,10,7.0,-999.0,56,-99.99,,,-99.99,,2013-09-13 17:04:00,
2013-09-13 17:13:00,70.0,54.0,30.19,North,10,7.0,-999.0,56,-99.99,,,-99.99,,2013-09-13 17:13:00,
2013-09-13 17:23:00,70.0,54.0,30.19,North,10,7.0,-999.0,56,-99.99,,,-99.99,,2013-09-13 17:23:00,
2013-09-13 17:53:00,72.0,52.0,30.17,NNE,20,12.0,-999.0,49,-99.99,,,-99.99,,2013-09-13 17:53:00,
2013-09-13 18:02:00,72.0,52.0,30.17,NNE,20,12.0,-999.0,49,-99.99,,,-99.99,,2013-09-13 18:02:00,
2013-09-13 18:12:00,72.0,52.0,30.17,NNE,20,12.0,-999.0,49,-99.99,,,-99.99,,2013-09-13 18:12:00,
2013-09-13 18:22:00,72.0,52.0,30.17,NE,50,8.0,-999.0,49,-99.99,,,-99.99,,2013-09-13 18:22:00,
2013-09-13 18:52:00,72.0,50.0,30.15,NE,50,7.0,-999.0,46,-99.99,,,-99.99,,2013-09-13 18:52:00,
2013-09-13 19:01:00,72.0,50.0,30.15,NE,50,7.0,-999.0,46,-99.99,,,-99.99,,2013-09-13 19:01:00,
2013-09-13 19:11:00,72.0,50.0,30.15,NE,50,7.0,-999.0,46,-99.99,,,-99.99,,2013-09-13 19:11:00,
2013-09-13 19:22:00,72.0,52.0,30.15,NNE,20,10.0,-999.0,49,-99.99,,,-99.99,,2013-09-13 19:22:00,
2013-09-13 19:52:00,72.0,52.0,30.13,NE,40,9.0,-999.0,49,-99.99,,,-99.99,,2013-09-13 19:52:00,
2013-09-13 20:02:00,72.0,52.0,30.13,NE,40,9.0,-999.0,49,-99.99,,,-99.99,,2013-09-13 20:02:00,
2013-09-13 20:11:00,72.0,52.0,30.13,NE,40,9.0,-999.0,49,-99.99,,,-99.99,,2013-09-13 20:11:00,
2013-09-13 20:22:00,73.0,50.0,30.13,NE,40,12.0,-999.0,43,-99.99,,,-99.99,,2013-09-13 20:22:00,
2013-09-13 20:52:00,73.0,50.0,30.12,NE,50,5.0,-999.0,43,-99.99,,,-99.99,,2013-09-13 20:52:00,
2013-09-13 21:02:00,73.0,50.0,30.12,NE,50,5.0,-999.0,43,-99.99,,,-99.99,,2013-09-13 21:02:00,
2013-09-13 21:12:00,73.0,50.0,30.12,NE,50,5.0,-999.0,43,-99.99,,,-99.99,,2013-09-13 21:12:00,
2013-09-13 21:21:00,72.0,48.0,30.12,NE,50,-999.0,-999.0,43,-99.99,,,-99.99,,2013-09-13 21:21:00,
2013-09-13 21:54:00,72.0,48.0,30.12,ENE,60,8.0,-999.0,43,-99.99,,,-99.99,,2013-09-13 21:54:00,
2013-09-13 22:04:00,72.0,48.0,30.12,ENE,60,8.0,-999.0,43,-99.99,,,-99.99,,2013-09-13 22:04:00,
2013-09-13 22:13:00,72.0,48.0,30.12,ENE,60,8.0,-999.0,43,-99.99,,,-99.99,,2013-09-13 22:13:00,
2013-09-13 22:24:00,72.0,50.0,30.11,NE,50,8.0,-999.0,46,-99.99,,,-99.99,,2013-09-13 22:24:00,
2013-09-13 22:53:00,72.0,48.0,30.11,NE,50,7.0,-999.0,43,-99.99,,,-99.99,,2013-09-13 22:53:00,
2013-09-13 23:03:00,72.0,48.0,30.11,NE,50,7.0,-999.0,43,-99.99,,,-99.99,,2013-09-13 23:03:00,
2013-09-13 23:12:00,72.0,48.0,30.11,NE,50,7.0,-999.0,43,-99.99,,,-99.99,,2013-09-13 23:12:00,
2013-09-13 23:22:00,70.0,48.0,30.11,NE,50,7.0,-999.0,46,-99.99,,,-99.99,,2013-09-13 23:22:00,
2013-09-13 23:53:00,68.0,48.0,30.11,NE,50,6.0,-999.0,49,-99.99,,,-99.99,,2013-09-13 23:53:00,